Regional Weather Roundup
Issued by NWS

Home | Current Version | Previous Version | Graphics & Text | Print | Product List | Glossary On
Versions: 1 2 3 4 5 6 7 8 9 10 11 12 13 14 15 16 17 18 19 20 21 22 23 24 25 26 27 28 29 30 31 32 33 34 35 36 37 38 39 40 41 42 43 44 45 46 47 48 49 50
000
ASUS43 KTOP 291708
RWRKS

WEATHER ROUNDUP FOR KANSAS
NATIONAL WEATHER SERVICE GOODLAND KS
1200 PM CDT FRI MAY 29 2015

NOTE:  "FAIR" INDICATES FEW OR NO CLOUDS BELOW 12,000 FEET WITH NO
SIGNIFICANT WEATHER AND/OR OBSTRUCTIONS TO VISIBILITY.

KSZ001>006-013>018-027>032-041>047-291800-
NORTHWEST KANSAS

CITY           SKY/WX    TMP DP  RH WIND       PRES   REMARKS
GOODLAND       MOSUNNY   68  54  60 N14       30.11R
HAYS           MOSUNNY   72  55  56 NW8       30.01R
HILL CITY      MOSUNNY   73  56  54 N12       30.02R
RUSSELL        PTSUNNY   72  58  61 NW7       29.98S
$$

KSZ061>065-074>080-084>089-291800-
SOUTHWEST KANSAS

CITY           SKY/WX    TMP DP  RH WIND       PRES   REMARKS
DODGE CITY     MOSUNNY   72  55  55 N12       30.04R
ELKHART          N/A     71  53  52 N13         N/A
GARDEN CITY    SUNNY     69  56  62 N12       30.05R
GREAT BEND     PTSUNNY   72  57  60 NE8       30.00S
LIBERAL        MOSUNNY   72  59  64 NE13      30.06S
PRATT          CLOUDY    70  59  68 CALM      30.01S
$$

KSZ066>073-081>083-090>101-291800-
SOUTHEAST KANSAS

CITY           SKY/WX    TMP DP  RH WIND       PRES   REMARKS
CHANUTE        CLOUDY    69  67  93 SE9       30.01F
COFFEYVILLE    LGT RAIN  70  69  97 SE5       30.00S
HUTCHINSON     CLOUDY    71  65  81 S5        29.98S
MEDICINE LODGE   N/A     73  62  68 VRB3      29.98R
NEWTON         CLOUDY    70  63  78 S9        30.01R
PARSONS        LGT RAIN  70  69  97 VRB5      30.02S
WICHITA INTL   CLOUDY    73  64  73 S6        29.98R
WICHITA JABRA  CLOUDY    71  64  78 S12       29.98S
WICHITA MCCONL CLOUDY    71  64  79 SE6       29.99R
WINFIELD       CLOUDY    71  65  81 SE10      29.99S
$$

KSZ007>012-019>026-033>040-048>060-102>105-291800-
NORTHEAST KANSAS

CITY           SKY/WX    TMP DP  RH WIND       PRES   REMARKS
CONCORDIA      CLOUDY    69  59  70 SW3       29.97S
EMPORIA        LGT RAIN  66  65  96 SE7       30.00S
LAWRENCE       LGT RAIN  68  65  90 SW5       30.01R FOG
MANHATTAN      CLOUDY    70  67  90 S7        29.97S
MARYSVILLE     CLOUDY    68  63  83 S7        29.97F
OLATHE IND     LGT RAIN  67  65  93 S13       30.02R
OLATHE EXE     LGT RAIN  67  65  93 S7        30.01R
SALINA         CLOUDY    72  61  68 W3        29.98S
TOPEKA BILLARD LGT RAIN  68  66  93 S12G22    29.98F
TOPEKA FORBES  LGT RAIN  69  65  86 S14       29.98F
$$


USA.gov is the U.S. government's official web portal to all federal, state and local government web resources and services.